Printer-friendly version

IAU Minor Planet Center

Minor Planet Center

(102) Miriam

Orbital Elements

The following orbital elements are taken from MPC 34570:
  (102) Miriam
Epoch 2007 Apr. 10.0 TT = JDT 2454200.5                 Goffin
M 332.03112              (2000.0)            P               Q
n   0.22690716     Peri.  147.38276     +0.99843621     +0.03121912
a   2.6621790      Node   210.92944     -0.04463787     +0.94460934
e   0.2513656      Incl.    5.17648     +0.03365397     +0.32670869
P   4.34           H    9.26          G   0.15           U   0
From 318 observations at 51 oppositions, 1868-1999, mean residual 0".56.
An explanation of the orbital elements is available.

These orbital elements are also available in forms suitable for loading into a number of popular planetarium-type software programs.


Ephemeris

The following ephemeris is at intervals of five days. A daily ephemeris covering the same time interval is also available.

Personalized ephemerides for this object (and others) can be generated using the MPES.

Date    TT    R. A. (2000) Decl.     Delta      r     Elong.  Phase     V
 
2007 09 18    01 47.28   +14 09.9    1.101    2.006   144.5    16.9    11.9
2007 09 23    01 45.82   +13 46.3    1.078    2.010   149.9    14.5    11.8
2007 09 28    01 43.67   +13 17.1    1.059    2.014   155.5    11.9    11.6
2007 10 03    01 40.92   +12 43.1    1.045    2.019   161.2     9.2    11.5
2007 10 08    01 37.70   +12 05.1    1.037    2.024   167.1     6.3    11.4
2007 10 13    01 34.17   +11 24.1    1.035    2.029   173.0     3.4    11.2
2007 10 18    01 30.52   +10 41.6    1.039    2.035   178.6     0.7    11.0
2007 10 23    01 26.93   +09 59.0    1.048    2.041   174.6     2.6    11.2
2007 10 28    01 23.57   +09 17.8    1.064    2.048   168.7     5.5    11.4
2007 11 02    01 20.61   +08 39.2    1.086    2.055   162.8     8.2    11.6
2007 11 07    01 18.15   +08 04.4    1.113    2.062   157.0    10.8    11.7

Back to Bright Minor Planets

Astronomical Headlines Index

MPC


Valid HTML 4.01!